Time,TemperatureF,DewpointF,PressureIn,WindDirection,WindDirectionDegrees,WindSpeedMPH,WindSpeedGustMPH,Humidity,HourlyPrecipIn,Conditions,Clouds,dailyrainin,SolarRadiationWatts/m^2,SoftwareType,DateUTC
2013-03-15 00:12:00,77.0,34.0,-100.00,WNW,285,0.0,5.0,21,0.00,,,0.00,0.000000,,2013-03-15 07:12:00,
2013-03-15 00:22:00,77.0,34.0,-100.00,WNW,285,0.0,5.0,21,0.00,,,0.00,0.000000,,2013-03-15 07:22:00,
2013-03-15 00:32:00,77.0,34.0,-100.00,WNW,285,0.0,5.0,21,0.00,,,0.00,0.000000,,2013-03-15 07:32:00,
2013-03-15 00:42:00,77.0,34.0,-100.00,WNW,285,0.0,5.0,21,0.00,,,0.00,0.000000,,2013-03-15 07:42:00,
2013-03-15 00:51:00,77.0,34.0,-100.00,WNW,285,0.0,5.0,21,0.00,,,0.00,0.000000,,2013-03-15 07:51:00,
2013-03-15 00:52:00,76.0,34.0,-100.00,WSW,252,0.0,2.0,22,0.00,,,0.00,0.000000,,2013-03-15 07:52:00,
2013-03-15 01:22:00,76.0,34.0,-100.00,WSW,252,0.0,2.0,22,0.00,,,0.00,0.000000,,2013-03-15 08:22:00,
2013-03-15 01:42:00,76.0,34.0,-100.00,WSW,252,0.0,2.0,22,0.00,,,0.00,0.000000,,2013-03-15 08:42:00,
2013-03-15 01:52:00,75.0,34.0,-100.00,NNW,329,3.0,6.0,22,0.00,,,0.00,0.000000,,2013-03-15 08:52:00,
2013-03-15 02:12:00,75.0,34.0,-100.00,NNW,329,3.0,6.0,22,0.00,,,0.00,0.000000,,2013-03-15 09:12:00,
2013-03-15 02:22:00,75.0,34.0,-100.00,NNW,329,3.0,6.0,22,0.00,,,0.00,0.000000,,2013-03-15 09:22:00,
2013-03-15 02:33:00,75.0,34.0,-100.00,NNW,329,3.0,6.0,22,0.00,,,0.00,0.000000,,2013-03-15 09:33:00,
2013-03-15 02:42:00,75.0,34.0,-100.00,NNW,329,3.0,6.0,22,0.00,,,0.00,0.000000,,2013-03-15 09:42:00,
2013-03-15 03:12:00,72.0,32.0,-100.00,ENE,77,0.0,6.0,23,0.00,,,0.00,0.000000,,2013-03-15 10:12:00,
2013-03-15 03:23:00,72.0,32.0,-100.00,ENE,77,0.0,6.0,23,0.00,,,0.00,0.000000,,2013-03-15 10:23:00,
2013-03-15 03:32:00,72.0,32.0,-100.00,ENE,77,0.0,6.0,23,0.00,,,0.00,0.000000,,2013-03-15 10:32:00,
2013-03-15 03:42:00,72.0,32.0,-100.00,ENE,77,0.0,6.0,23,0.00,,,0.00,0.000000,,2013-03-15 10:42:00,
2013-03-15 03:51:00,72.0,32.0,-100.00,ENE,77,0.0,6.0,23,0.00,,,0.00,0.000000,,2013-03-15 10:51:00,
2013-03-15 03:52:00,71.0,32.0,-100.00,SSE,165,0.0,4.0,24,0.00,,,0.00,0.000000,,2013-03-15 10:52:00,
2013-03-15 04:22:00,71.0,32.0,-100.00,SSE,165,0.0,4.0,24,0.00,,,0.00,0.000000,,2013-03-15 11:22:00,
2013-03-15 04:32:00,71.0,32.0,-100.00,SSE,165,0.0,4.0,24,0.00,,,0.00,0.000000,,2013-03-15 11:32:00,
2013-03-15 04:42:00,71.0,32.0,-100.00,SSE,165,0.0,4.0,24,0.00,,,0.00,0.000000,,2013-03-15 11:42:00,
2013-03-15 05:12:00,74.0,33.0,-100.00,SSW,206,3.0,5.0,22,0.00,,,0.00,0.000000,,2013-03-15 12:12:00,
2013-03-15 05:22:00,74.0,33.0,-100.00,SSW,206,3.0,5.0,22,0.00,,,0.00,0.000000,,2013-03-15 12:22:00,
2013-03-15 05:32:00,74.0,33.0,-100.00,SSW,206,3.0,5.0,22,0.00,,,0.00,0.000000,,2013-03-15 12:32:00,
2013-03-15 05:42:00,74.0,33.0,-100.00,SSW,206,3.0,5.0,22,0.00,,,0.00,0.000000,,2013-03-15 12:42:00,
2013-03-15 05:51:00,74.0,33.0,-100.00,SSW,206,3.0,5.0,22,0.00,,,0.00,0.000000,,2013-03-15 12:51:00,
2013-03-15 05:52:00,75.0,31.0,-100.00,West,265,4.0,7.0,20,0.00,,,0.00,0.000000,,2013-03-15 12:52:00,
2013-03-15 06:12:00,75.0,31.0,-100.00,West,265,4.0,7.0,20,0.00,,,0.00,0.000000,,2013-03-15 13:12:00,
2013-03-15 06:22:00,75.0,31.0,-100.00,West,265,4.0,7.0,20,0.00,,,0.00,0.000000,,2013-03-15 13:22:00,
2013-03-15 06:32:00,75.0,31.0,-100.00,West,265,4.0,7.0,20,0.00,,,0.00,0.000000,,2013-03-15 13:32:00,
2013-03-15 06:42:00,75.0,31.0,-100.00,West,265,4.0,7.0,20,0.00,,,0.00,0.000000,,2013-03-15 13:42:00,
2013-03-15 07:12:00,73.0,30.0,-100.00,WSW,238,0.0,3.0,20,0.00,,,0.00,0.000000,,2013-03-15 14:12:00,
2013-03-15 07:22:00,73.0,30.0,-100.00,WSW,238,0.0,3.0,20,0.00,,,0.00,0.000000,,2013-03-15 14:22:00,
2013-03-15 07:32:00,73.0,30.0,-100.00,WSW,238,0.0,3.0,20,0.00,,,0.00,0.000000,,2013-03-15 14:32:00,
2013-03-15 07:42:00,73.0,30.0,-100.00,WSW,238,0.0,3.0,20,0.00,,,0.00,0.000000,,2013-03-15 14:42:00,
2013-03-15 07:51:00,73.0,30.0,-100.00,WSW,238,0.0,3.0,20,0.00,,,0.00,0.000000,,2013-03-15 14:51:00,
2013-03-15 07:52:00,74.0,32.0,-100.00,South,172,4.0,5.0,21,0.00,,,0.00,75.000000,,2013-03-15 14:52:00,
2013-03-15 08:12:00,74.0,32.0,-100.00,South,172,4.0,5.0,21,0.00,,,0.00,75.000000,,2013-03-15 15:12:00,
2013-03-15 08:22:00,74.0,32.0,-100.00,South,172,4.0,5.0,21,0.00,,,0.00,75.000000,,2013-03-15 15:22:00,
2013-03-15 08:33:00,74.0,32.0,-100.00,South,172,4.0,5.0,21,0.00,,,0.00,75.000000,,2013-03-15 15:33:00,
2013-03-15 08:42:00,74.0,32.0,-100.00,South,172,4.0,5.0,21,0.00,,,0.00,75.000000,,2013-03-15 15:42:00,
2013-03-15 08:52:00,77.0,34.0,-100.00,SSE,150,0.0,5.0,21,0.00,,,0.00,136.000000,,2013-03-15 15:52:00,
2013-03-15 09:22:00,77.0,34.0,-100.00,SSE,150,0.0,5.0,21,0.00,,,0.00,136.000000,,2013-03-15 16:22:00,
2013-03-15 09:32:00,77.0,34.0,-100.00,SSE,150,0.0,5.0,21,0.00,,,0.00,136.000000,,2013-03-15 16:32:00,
2013-03-15 09:42:00,77.0,34.0,-100.00,SSE,150,0.0,5.0,21,0.00,,,0.00,136.000000,,2013-03-15 16:42:00,
2013-03-15 09:52:00,82.0,31.0,-100.00,South,170,1.0,4.0,16,0.00,,,0.00,403.000000,,2013-03-15 16:52:00,
2013-03-15 10:22:00,82.0,31.0,-100.00,South,170,1.0,4.0,16,0.00,,,0.00,403.000000,,2013-03-15 17:22:00,
2013-03-15 10:32:00,82.0,31.0,-100.00,South,170,1.0,4.0,16,0.00,,,0.00,403.000000,,2013-03-15 17:32:00,
2013-03-15 10:42:00,82.0,31.0,-100.00,South,170,1.0,4.0,16,0.00,,,0.00,403.000000,,2013-03-15 17:42:00,
2013-03-15 10:52:00,92.0,32.0,-100.00,East,90,1.0,5.0,12,0.00,,,0.00,771.000000,,2013-03-15 17:52:00,
2013-03-15 11:12:00,92.0,32.0,-100.00,East,90,1.0,5.0,12,0.00,,,0.00,771.000000,,2013-03-15 18:12:00,
2013-03-15 11:22:00,92.0,32.0,-100.00,East,90,1.0,5.0,12,0.00,,,0.00,771.000000,,2013-03-15 18:22:00,
2013-03-15 11:42:00,92.0,32.0,-100.00,East,90,1.0,5.0,12,0.00,,,0.00,771.000000,,2013-03-15 18:42:00,
2013-03-15 11:52:00,90.0,36.0,-100.00,ENE,63,5.0,9.0,15,0.00,,,0.00,609.000000,,2013-03-15 18:52:00,
2013-03-15 12:22:00,90.0,36.0,-100.00,ENE,63,5.0,9.0,15,0.00,,,0.00,609.000000,,2013-03-15 19:22:00,
2013-03-15 12:32:00,90.0,36.0,-100.00,ENE,63,5.0,9.0,15,0.00,,,0.00,609.000000,,2013-03-15 19:32:00,
2013-03-15 12:42:00,90.0,36.0,-100.00,ENE,63,5.0,9.0,15,0.00,,,0.00,609.000000,,2013-03-15 19:42:00,
2013-03-15 13:12:00,91.0,35.0,-100.00,NE,50,2.0,8.0,14,0.00,,,-99.99,700.000000,,2013-03-15 20:12:00,
2013-03-15 13:22:00,91.0,35.0,-100.00,NE,50,2.0,8.0,14,0.00,,,-99.99,700.000000,,2013-03-15 20:22:00,
2013-03-15 13:31:00,91.0,35.0,-100.00,NE,50,2.0,8.0,14,0.00,,,-99.99,700.000000,,2013-03-15 20:31:00,
2013-03-15 13:42:00,91.0,35.0,-100.00,NE,50,2.0,8.0,14,0.00,,,-99.99,700.000000,,2013-03-15 20:42:00,
2013-03-15 13:51:00,91.0,35.0,-100.00,NE,50,2.0,8.0,14,0.00,,,-99.99,700.000000,,2013-03-15 20:51:00,
2013-03-15 13:52:00,92.0,30.0,-100.00,East,87,4.0,8.0,11,0.00,,,0.00,796.000000,,2013-03-15 20:52:00,
2013-03-15 14:22:00,92.0,30.0,-100.00,East,87,4.0,8.0,11,0.00,,,0.00,796.000000,,2013-03-15 21:22:00,
2013-03-15 14:32:00,92.0,30.0,-100.00,East,87,4.0,8.0,11,0.00,,,0.00,796.000000,,2013-03-15 21:32:00,
2013-03-15 14:42:00,92.0,30.0,-100.00,East,87,4.0,8.0,11,0.00,,,0.00,796.000000,,2013-03-15 21:42:00,
2013-03-15 14:52:00,94.0,31.0,-100.00,East,84,6.0,10.0,11,0.00,,,0.00,1017.000000,,2013-03-15 21:52:00,
2013-03-15 15:22:00,94.0,31.0,-100.00,East,84,6.0,10.0,11,0.00,,,0.00,1017.000000,,2013-03-15 22:22:00,
2013-03-15 15:32:00,94.0,31.0,-100.00,East,84,6.0,10.0,11,0.00,,,0.00,1017.000000,,2013-03-15 22:32:00,
2013-03-15 15:42:00,94.0,31.0,-100.00,East,84,6.0,10.0,11,0.00,,,0.00,1017.000000,,2013-03-15 22:42:00,
2013-03-15 15:52:00,96.0,33.0,-100.00,NE,54,4.0,11.0,11,0.00,,,0.00,823.000000,,2013-03-15 22:52:00,
2013-03-15 16:22:00,96.0,33.0,-100.00,NE,54,4.0,11.0,11,0.00,,,0.00,823.000000,,2013-03-15 23:22:00,
2013-03-15 16:32:00,96.0,33.0,-100.00,NE,54,4.0,11.0,11,0.00,,,0.00,823.000000,,2013-03-15 23:32:00,
2013-03-15 16:42:00,96.0,33.0,-100.00,NE,54,4.0,11.0,11,0.00,,,0.00,823.000000,,2013-03-15 23:42:00,
2013-03-15 16:52:00,94.0,31.0,-100.00,East,92,5.0,10.0,11,0.00,,,0.00,610.000000,,2013-03-15 23:52:00,
2013-03-15 17:12:00,94.0,31.0,-100.00,East,92,5.0,10.0,11,0.00,,,0.00,610.000000,,2013-03-16 00:12:00,
2013-03-15 17:22:00,94.0,31.0,-100.00,East,92,5.0,10.0,11,0.00,,,0.00,610.000000,,2013-03-16 00:22:00,
2013-03-15 17:32:00,94.0,31.0,-100.00,East,92,5.0,10.0,11,0.00,,,0.00,610.000000,,2013-03-16 00:32:00,
2013-03-15 17:42:00,94.0,31.0,-100.00,East,92,5.0,10.0,11,0.00,,,0.00,610.000000,,2013-03-16 00:42:00,
2013-03-15 17:52:00,91.0,29.0,-100.00,East,92,4.0,8.0,11,0.00,,,0.00,317.000000,,2013-03-16 00:52:00,
2013-03-15 18:12:00,91.0,29.0,-100.00,East,92,4.0,8.0,11,0.00,,,0.00,317.000000,,2013-03-16 01:12:00,
2013-03-15 18:21:00,91.0,29.0,-100.00,East,92,4.0,8.0,11,0.00,,,0.00,317.000000,,2013-03-16 01:21:00,
2013-03-15 18:32:00,91.0,29.0,-100.00,East,92,4.0,8.0,11,0.00,,,0.00,317.000000,,2013-03-16 01:32:00,
2013-03-15 18:42:00,91.0,29.0,-100.00,East,92,4.0,8.0,11,0.00,,,0.00,317.000000,,2013-03-16 01:42:00,
2013-03-15 19:12:00,89.0,25.0,-100.00,NW,307,4.0,11.0,10,0.00,,,0.00,22.000000,,2013-03-16 02:12:00,
2013-03-15 19:22:00,89.0,25.0,-100.00,NW,307,4.0,11.0,10,0.00,,,0.00,22.000000,,2013-03-16 02:22:00,
2013-03-15 19:32:00,89.0,25.0,-100.00,NW,307,4.0,11.0,10,0.00,,,0.00,22.000000,,2013-03-16 02:32:00,
2013-03-15 19:42:00,89.0,25.0,-100.00,NW,307,4.0,11.0,10,0.00,,,0.00,22.000000,,2013-03-16 02:42:00,
2013-03-15 19:51:00,89.0,25.0,-100.00,NW,307,4.0,11.0,10,0.00,,,0.00,22.000000,,2013-03-16 02:51:00,
2013-03-15 19:52:00,84.0,31.0,-100.00,SSE,149,3.0,9.0,15,0.00,,,0.00,0.000000,,2013-03-16 02:52:00,
2013-03-15 20:12:00,84.0,31.0,-100.00,SSE,149,3.0,9.0,15,0.00,,,0.00,0.000000,,2013-03-16 03:12:00,
2013-03-15 20:21:00,84.0,31.0,-100.00,SSE,149,3.0,9.0,15,0.00,,,0.00,0.000000,,2013-03-16 03:21:00,
2013-03-15 20:32:00,84.0,31.0,-100.00,SSE,149,3.0,9.0,15,0.00,,,0.00,0.000000,,2013-03-16 03:32:00,
2013-03-15 20:42:00,84.0,31.0,-100.00,SSE,149,3.0,9.0,15,0.00,,,0.00,0.000000,,2013-03-16 03:42:00,
2013-03-15 20:52:00,81.0,29.0,-100.00,ENE,74,2.0,9.0,15,0.00,,,0.00,0.000000,,2013-03-16 03:52:00,
2013-03-15 21:12:00,81.0,29.0,-100.00,ENE,74,2.0,9.0,15,0.00,,,0.00,0.000000,,2013-03-16 04:12:00,
2013-03-15 21:22:00,81.0,29.0,-100.00,ENE,74,2.0,9.0,15,0.00,,,0.00,0.000000,,2013-03-16 04:22:00,
2013-03-15 21:32:00,81.0,29.0,-100.00,ENE,74,2.0,9.0,15,0.00,,,0.00,0.000000,,2013-03-16 04:32:00,
2013-03-15 21:42:00,81.0,29.0,-100.00,ENE,74,2.0,9.0,15,0.00,,,0.00,0.000000,,2013-03-16 04:42:00,
2013-03-15 22:12:00,81.0,19.0,-100.00,WSW,241,4.0,10.0,10,0.00,,,0.00,0.000000,,2013-03-16 05:12:00,
2013-03-15 22:21:00,81.0,19.0,-100.00,WSW,241,4.0,10.0,10,0.00,,,0.00,0.000000,,2013-03-16 05:21:00,
2013-03-15 22:32:00,81.0,19.0,-100.00,WSW,241,4.0,10.0,10,0.00,,,0.00,0.000000,,2013-03-16 05:32:00,
2013-03-15 22:42:00,81.0,19.0,-100.00,WSW,241,4.0,10.0,10,0.00,,,0.00,0.000000,,2013-03-16 05:42:00,
2013-03-15 22:51:00,81.0,19.0,-100.00,WSW,241,4.0,10.0,10,0.00,,,0.00,0.000000,,2013-03-16 05:51:00,
2013-03-15 23:22:00,79.0,27.0,-100.00,SE,131,2.0,10.0,15,0.00,,,0.00,0.000000,,2013-03-16 06:22:00,
2013-03-15 23:32:00,79.0,27.0,-100.00,SE,131,2.0,10.0,15,0.00,,,0.00,0.000000,,2013-03-16 06:32:00,
2013-03-15 23:42:00,79.0,27.0,-100.00,SE,131,2.0,10.0,15,0.00,,,0.00,0.000000,,2013-03-16 06:42:00,
2013-03-15 23:51:00,79.0,27.0,-100.00,SE,131,2.0,10.0,15,0.00,,,0.00,0.000000,,2013-03-16 06:51:00,
2013-03-15 23:52:00,76.0,27.0,-100.00,NW,325,1.0,6.0,16,0.00,,,0.00,0.000000,,2013-03-16 06:52:00,